Lapse_Rate
3.1 3.2 3.0 3.2 2.9 2.5 2.9 2.6 2.9 2.7 2.6 2.6 3.0 2.6 2.6 2.2 1.7 2.0 2.7 3.1 4.0 4.9 5.5 4.8 5.5 5.3 4.7 4.6 4.4 4.3 4.5 3.8 4.9 6.2 5.7 6.1 5.8 6.0 6.3 6.0 5.9 5.7 6.2
2.5 3.1 3.0 2.9 2.9 3.0 2.7 2.6 1.9 3.1 3.1 3.3 2.9 2.3 2.1 2.2 1.6 2.0 3.1 3.5 4.4 4.9 5.5 5.2 5.7 6.7 5.4 5.0 4.4 4.5 3.8 4.2 4.6 5.6 5.3 5.8 5.7 4.7 5.9 5.8 6.2 5.9 5.3
2.7 2.5 2.8 2.9 2.9 3.4 3.4 2.9 2.7 3.3 4.2 3.3 3.2 2.9 2.1 1.4 1.4 3.5 4.1 3.9 5.2 6.0 5.5 5.5 6.2 6.0 5.0 5.2 4.4 3.6 3.9 4.8 3.9 3.6 5.4 5.5 5.5 5.5 6.1 6.4 5.0 5.1 5.3
2.7 2.3 2.1 2.3 2.8 3.2 3.4 3.1 3.5 3.8 4.8 4.0 3.4 2.9 1.7 1.4 1.9 5.2 5.0 5.5 5.4 6.0 6.0 6.1 6.5 5.8 5.8 4.4 3.8 3.6 3.8 3.0 3.0 3.7 4.8 4.8 5.0 5.2 5.9 6.2 4.3 4.4 3.4
3.1 2.5 2.1 2.2 2.5 3.3 3.1 3.9 4.4 4.4 4.4 3.6 3.1 2.5 1.9 1.9 4.2 4.4 5.2 4.9 5.1 5.9 6.2 6.5 6.2 6.6 6.2 4.8 3.7 3.4 2.9 2.2 2.9 4.3 4.4 5.0 4.5 5.1 5.8 4.2 4.4 4.0 4.4
2.1 2.6 2.1 2.5 2.5 3.0 3.5 4.2 4.2 4.3 3.3 3.1 2.9 2.6 2.6 4.2 4.2 3.4 5.8 5.1 5.3 5.5 6.1 5.2 6.5 5.7 4.9 4.9 4.7 5.1 5.1 3.5 4.2 5.8 4.4 4.9 4.1 5.2 3.9 4.2 4.7 5.3 5.7
2.1 2.1 1.6 2.3 2.7 3.3 4.0 4.2 4.2 4.1 3.4 2.8 3.3 3.6 3.7 3.8 1.6 2.5 3.5 4.2 4.7 4.8 5.1 5.0 6.0 5.7 2.6 2.5 2.9 3.7 3.6 4.7 6.0 4.6 4.3 4.9 3.2 3.4 3.6 4.7 4.6 5.1 5.6
0.6 1.1 1.7 2.8 3.6 3.6 3.5 4.2 3.8 4.0 4.1 3.8 3.7 3.8 2.0 1.8 1.4 2.4 3.8 4.4 4.9 4.9 5.6 5.8 5.2 1.2 1.3 1.9 2.1 1.7 1.7 2.8 3.4 4.6 4.2 4.7 3.1 2.6 3.0 4.2 5.2 5.5 5.4
1.1 1.9 2.9 3.8 3.7 3.6 4.0 3.4 3.4 3.6 3.8 3.7 3.6 3.2 2.6 0.7 1.2 1.0 3.2 4.1 4.4 4.9 2.5 2.7 1.6 1.2 1.7 1.8 1.1 1.3 1.7 2.6 4.4 5.1 4.9 5.2 4.0 3.9 4.0 3.8 4.7 5.7 6.1
2.8 3.1 3.4 3.6 3.3 3.5 3.3 3.8 3.4 3.8 4.3 4.0 4.1 3.2 2.3 1.0 -0.7 0.4 3.1 3.1 3.5 2.9 1.3 1.1 2.0 2.1 1.8 0.9 1.5 1.9 2.6 3.0 2.9 4.1 4.9 4.7 4.2 3.1 4.0 3.7 4.8 5.7 6.3
3.0 3.5 3.6 2.8 2.9 3.5 4.4 4.0 3.6 3.9 3.8 4.0 3.7 3.9 2.2 0.6 -1.4 -0.5 2.2 2.3 2.3 3.0 2.0 1.6 2.1 2.5 1.5 2.0 2.1 2.5 3.7 2.8 4.3 3.7 4.3 3.4 3.2 3.2 2.6 3.0 4.5 4.3 5.9
3.6 3.5 3.1 3.0 3.3 4.0 3.4 3.9 3.8 3.0 2.6 3.7 4.3 2.8 0.8 0.2 -0.5 -0.1 0.7 1.3 3.0 2.6 2.6 2.5 2.7 3.9 3.3 2.2 2.6 3.2 3.1 3.6 3.4 4.1 3.5 5.3 5.5 6.1 5.2 3.3 3.9 4.0 4.2
3.2 2.9 3.2 2.8 2.7 3.2 3.6 3.1 4.2 3.0 3.7 4.0 3.7 2.1 0.8 0.7 0.6 0.2 0.4 1.5 2.0 2.2 2.3 3.2 4.7 4.3 3.6 3.2 3.8 5.2 3.3 2.5 3.4 4.0 3.8 5.2 5.8 5.0 3.1 3.4 3.8 4.1 3.9
2.8 3.1 3.1 2.5 1.9 2.2 3.4 3.1 3.3 3.6 3.3 3.3 3.5 3.6 1.7 -0.1 0.2 0.9 1.7 1.2 1.3 2.2 2.6 2.7 4.2 4.7 4.4 4.9 4.0 3.6 3.2 3.3 4.0 3.9 3.6 3.7 4.8 4.7 6.2 3.8 3.3 3.5 4.0
3.1 3.4 2.9 2.8 2.9 -0.2 -2.3 -2.7 1.6 -1.8 -0.9 3.8 3.5 3.3 2.6 1.3 1.2 1.3 2.0 1.8 1.6 1.1 2.2 2.9 3.2 3.0 3.2 3.4 3.6 4.0 2.9 3.0 2.9 3.2 4.1 4.7 4.7 5.3 4.7 5.0 5.0 4.3 4.0
3.6 3.4 3.5 3.0 1.5 0.6 0.5 -0.2 -3.3 -4.1 -4.4 -4.1 0.3 2.3 -0.1 -0.7 -2.1 -2.1 -1.5 -0.8 0.1 1.9 3.0 2.9 2.8 2.9 3.5 3.6 3.7 3.8 3.0 3.3 3.4 3.5 3.4 3.9 4.3 4.2 4.9 4.6 4.2 4.3 4.3
3.2 3.6 3.8 4.8 4.3 2.9 1.6 1.0 0.0 -1.2 -3.5 -5.2 -4.1 -3.1 -1.3 -2.3 -3.3 -2.1 -1.5 -0.8 -0.0 2.4 2.5 2.5 2.5 2.9 3.5 3.6 3.7 3.6 3.8 3.2 3.1 3.2 3.5 3.6 3.6 3.8 3.9 4.0 4.9 4.1 4.5
3.3 3.1 3.9 3.5 3.0 2.7 3.4 3.3 1.6 1.6 1.7 0.6 -2.5 -2.4 -3.8 -3.7 -2.8 -1.6 -0.0 2.5 3.2 2.8 2.7 2.7 2.6 3.1 3.6 4.2 4.3 4.5 4.3 3.4 3.4 3.4 3.7 4.0 4.1 4.0 4.3 3.5 3.1 4.2 3.6
3.2 3.2 3.7 3.8 3.2 3.5 3.3 3.2 3.9 3.0 1.3 0.6 0.2 -0.8 -2.1 -2.3 -1.8 -1.3 0.3 2.4 3.3 2.9 2.7 2.7 2.9 3.4 4.0 4.3 4.4 4.1 4.5 4.0 3.6 3.6 3.4 3.6 4.1 3.8 4.4 3.8 3.3 3.6 3.5
3.2 4.5 4.4 4.0 3.7 4.0 4.2 4.2 3.7 2.2 2.1 1.3 1.0 1.0 1.1 2.2 2.9 3.4 3.5 3.1 2.6 2.5 2.6 3.1 3.5 3.7 3.9 4.0 3.8 3.4 3.9 3.5 3.3 3.4 3.5 3.3 3.5 3.6 4.2 4.2 3.5 3.1 3.1
4.2 4.3 4.1 5.1 4.3 4.4 4.0 3.5 3.7 2.6 2.7 2.6 2.1 2.6 1.8 3.1 3.7 4.3 3.5 2.9 2.7 2.6 3.1 3.5 3.4 3.5 3.4 2.9 2.8 2.6 2.9 2.5 2.6 3.0 3.1 3.1 3.6 4.0 3.7 4.0 3.8 3.3 3.0
3.7 3.5 4.1 4.8 4.8 5.0 4.5 4.5 4.9 4.1 4.0 3.4 3.3 3.3 0.8 2.8 4.1 4.0 3.3 3.6 2.5 3.0 3.6 3.3 3.6 3.5 2.5 1.8 1.2 1.3 1.1 0.9 1.1 2.0 2.3 2.8 3.1 3.6 4.2 4.4 3.8 3.5 3.2
4.8 4.3 4.2 3.8 4.0 3.8 4.2 3.8 5.0 4.4 6.0 4.0 3.8 3.1 2.7 3.7 5.1 4.2 3.9 3.2 2.7 3.4 4.0 4.0 3.1 2.4 2.4 2.1 1.5 -0.0 -0.9 -1.1 -0.6 1.1 1.2 1.8 2.5 3.6 4.2 4.5 4.5 4.0 3.5
3.9 5.1 5.4 4.5 3.5 3.6 3.7 3.7 3.9 3.7 4.8 5.0 4.6 4.4 3.9 3.8 4.2 4.2 4.1 3.3 2.9 2.9 4.1 3.7 3.3 2.5 2.4 1.9 1.3 0.0 -0.9 -1.1 0.6 0.7 1.0 1.4 2.2 3.3 4.1 4.5 4.7 4.9 4.0
4.7 3.7 3.9 3.6 4.6 5.3 5.1 4.8 5.3 4.4 4.7 5.1 5.4 4.8 4.1 4.6 4.4 5.4 4.7 3.2 3.0 3.0 3.2 3.2 3.2 3.2 2.4 1.6 0.6 -0.2 -0.0 0.7 0.8 0.8 1.3 1.9 3.5 4.3 4.1 4.4 5.2 4.8 4.9
5.4 5.7 4.2 3.9 4.1 4.1 4.9 4.1 4.5 4.0 5.7 5.9 3.9 3.7 3.7 4.6 4.6 4.6 4.1 4.1 3.7 3.7 3.9 3.9 3.5 3.3 2.4 1.6 0.9 1.0 1.1 1.9 2.5 3.8 3.8 4.3 3.6 3.7 3.5 4.7 5.9 4.8 5.0
Wind_Speed
19 18 17 15 14 13 13 9 9 7 7 7 10 10 10 7 7 5 7 3 5 7 3 4 3 3 1 2 2 2 2 2 4 6 5 9 8 10 11 24 27 25 22
20 18 17 15 15 14 13 13 7 12 6 8 9 9 7 7 4 6 5 3 7 5 5 4 4 1 3 3 1 3 3 3 2 11 7 8 9 7 12 19 15 21 20
18 18 16 16 15 15 13 11 12 8 6 9 10 10 8 7 5 4 5 6 3 5 6 5 3 1 2 1 2 3 3 3 4 4 8 5 6 8 14 18 18 17 15
17 19 19 18 16 14 13 11 9 7 7 7 10 9 6 2 3 4 4 2 2 3 3 4 2 1 2 2 3 2 4 4 4 4 5 5 6 9 11 15 17 12 14
17 17 19 17 15 13 9 7 7 7 7 8 8 6 4 3 3 6 7 7 6 3 3 2 2 3 4 6 2 2 4 3 3 4 4 4 7 10 14 11 12 14 13
15 17 13 13 10 9 7 8 7 7 7 8 8 7 7 5 9 7 5 6 4 5 1 3 2 6 6 5 3 8 6 3 4 3 3 6 6 8 11 12 10 13 11
15 13 11 11 9 8 8 7 7 7 9 9 8 7 5 6 5 8 13 6 5 5 2 1 2 4 6 5 7 9 9 12 9 3 5 6 4 4 9 17 16 14 13
9 11 12 13 11 8 8 8 8 8 9 8 7 8 7 3 10 7 9 6 3 4 4 2 2 6 6 5 6 6 7 7 7 6 6 8 6 6 5 9 14 12 11
9 11 11 12 11 10 10 11 10 10 9 5 6 6 6 6 6 8 7 4 2 2 6 8 7 6 2 4 5 6 7 7 13 17 14 15 14 15 8 9 15 13 13
8 9 10 11 12 12 12 11 9 8 4 6 3 6 9 9 5 9 3 2 4 5 5 6 9 6 4 4 3 4 6 6 7 10 9 6 8 8 7 5 10 11 9
12 12 11 11 11 11 9 7 5 6 7 4 7 5 6 8 7 9 6 4 4 3 4 3 2 2 2 3 3 3 5 6 9 6 5 5 6 6 3 4 8 9 10
12 12 9 9 8 7 9 7 8 9 8 6 6 5 5 5 8 8 9 9 4 4 4 2 2 3 5 7 6 6 8 6 5 5 4 6 8 7 7 4 5 8 11
12 12 10 9 9 8 9 7 7 7 7 6 5 6 5 5 3 4 8 8 6 4 1 1 2 4 6 5 7 5 6 5 4 4 4 6 7 7 7 3 5 5 11
12 11 10 11 10 8 6 5 4 4 5 5 5 6 6 7 4 3 3 3 4 3 3 4 2 2 5 3 5 5 4 5 4 3 4 5 7 6 7 4 3 4 7
10 9 8 7 6 8 9 5 4 5 2 3 3 5 6 4 3 5 6 4 4 3 3 3 4 4 4 5 4 4 5 5 5 5 5 6 8 8 5 5 4 4 5
9 5 5 6 6 6 6 6 15 8 11 9 4 8 2 10 9 11 12 10 9 6 4 4 3 4 5 3 4 4 4 6 5 4 4 4 5 6 7 6 4 4 5
7 6 5 7 6 7 6 6 6 6 17 17 12 10 11 12 11 12 10 10 9 6 4 4 4 5 3 4 3 3 3 3 4 4 4 5 5 4 5 5 7 5 4
8 10 5 5 7 6 6 6 5 5 5 3 10 8 10 11 10 10 9 7 4 4 4 4 4 4 3 2 2 1 2 4 4 4 5 5 5 3 4 4 4 6 4
6 5 5 5 5 5 6 6 6 6 6 5 4 6 5 8 9 9 7 3 5 5 4 5 4 3 2 2 3 3 2 3 4 4 5 5 5 4 3 5 5 8 7
5 7 5 5 4 5 6 7 7 7 7 5 4 4 4 3 2 2 2 4 5 5 4 5 3 3 3 4 5 4 4 5 5 5 5 5 5 5 4 5 5 4 4
5 4 8 6 5 5 5 8 9 9 8 7 6 5 9 5 5 4 4 5 5 5 5 5 4 4 4 4 5 5 5 5 5 5 6 5 5 5 5 5 4 5 5
5 5 4 4 5 5 6 8 8 8 7 8 6 6 10 3 2 7 6 6 5 5 4 5 4 4 4 5 5 5 5 5 5 6 5 6 5 5 4 4 5 5 5
2 6 6 3 5 7 7 7 7 8 9 9 8 6 4 4 4 7 7 6 5 5 8 7 5 5 10 12 13 8 4 3 4 5 5 5 5 5 4 4 4 4 5
2 6 6 6 5 5 6 6 5 8 8 10 8 7 5 5 7 7 6 6 6 6 12 12 11 9 10 12 11 10 8 8 8 10 8 5 5 6 4 4 4 5 4
2 6 7 6 6 7 8 7 7 7 10 10 9 5 5 7 6 7 7 6 6 5 7 13 14 14 13 11 10 8 8 11 9 14 11 6 5 8 5 3 3 5 6
5 5 5 5 5 5 6 6 7 8 9 9 7 8 8 7 6 6 6 7 6 6 9 13 15 15 13 10 9 9 10 14 18 19 14 6 5 5 5 4 7 4 6
Wind_Direction
196 198 203 207 204 206 214 212 217 216 204 174 169 165 179 182 188 165 183 194 234 158 186 177 226 199 259 261 320 346 308 283 289 310 310 314 305 308 316 315 309 308 302
192 197 201 202 204 206 208 213 200 217 199 166 163 168 171 196 179 193 190 216 235 170 186 208 221 248 284 314 120 294 274 286 312 314 314 313 308 308 315 317 313 308 298
186 191 197 200 199 205 208 204 210 215 191 161 162 175 191 207 171 194 183 249 180 183 182 189 188 255 328 311 301 316 326 316 306 293 305 295 298 321 318 319 317 305 301
185 188 193 195 197 197 201 196 194 191 194 169 168 176 173 168 123 203 244 173 176 187 178 161 187 95 309 291 37 32 321 313 296 287 291 294 308 322 316 324 319 323 312
190 191 196 192 191 191 181 169 174 181 201 153 148 138 119 118 201 203 200 169 189 198 143 118 71 85 95 100 114 303 304 298 302 296 291 307 314 327 338 325 310 310 315
183 194 181 176 162 161 147 167 171 176 141 123 130 130 166 200 207 213 169 145 152 135 196 1 326 104 122 115 43 349 333 312 298 294 310 308 300 318 339 328 322 327 329
182 176 158 150 134 143 156 161 170 140 127 133 146 151 175 143 87 117 120 119 153 136 153 148 205 87 64 35 349 345 336 329 320 309 306 305 280 308 319 346 337 326 318
144 137 136 137 141 148 149 143 104 115 119 142 162 167 147 136 120 62 110 144 130 155 215 246 83 84 53 17 353 352 336 313 311 312 280 281 243 271 319 328 325 313 315
118 127 134 138 137 130 120 115 127 137 151 154 167 127 121 125 143 159 116 129 218 257 64 86 99 91 71 29 26 346 334 310 318 311 301 299 256 274 314 337 351 344 342
124 120 120 122 124 127 133 148 151 145 156 104 120 125 141 144 137 128 132 116 87 103 90 77 81 88 64 41 15 333 323 299 318 320 330 328 303 308 333 332 344 349 343
114 113 112 123 130 133 123 115 122 118 109 117 113 140 138 139 158 132 122 106 116 95 125 93 54 211 73 328 295 316 271 298 318 318 329 322 324 327 345 341 353 354 352
118 109 103 102 104 107 109 99 113 129 126 146 137 108 75 80 92 114 123 121 133 102 115 162 182 55 1 333 354 321 326 353 334 329 339 349 339 342 347 344 326 4 10
109 108 111 97 93 104 111 120 145 133 139 159 149 130 117 110 110 162 135 134 113 94 117 293 355 346 343 357 43 51 12 4 340 341 345 345 345 321 328 339 326 6 18
108 115 119 124 130 131 141 142 136 141 158 156 141 131 147 137 158 202 164 136 81 57 350 357 11 27 15 29 63 26 7 355 347 328 338 335 338 345 2 340 334 331 37
110 115 118 120 104 77 62 36 57 61 61 121 141 139 151 158 181 189 154 132 142 118 51 52 56 49 43 30 33 17 7 7 354 347 8 1 357 360 340 348 353 338 19
108 106 109 99 94 97 101 84 51 59 48 44 137 147 40 121 143 146 121 123 109 89 68 78 59 57 54 39 29 21 9 6 343 354 355 2 355 359 360 349 348 5 11
125 130 123 125 118 123 119 120 113 45 64 51 43 89 119 144 129 124 126 123 96 83 93 84 86 73 62 55 40 45 6 337 334 349 351 348 349 350 359 359 4 356 349
105 110 118 127 136 134 144 137 125 121 104 63 29 71 83 112 116 109 101 88 73 49 93 99 91 82 61 52 1 6 354 353 343 348 348 353 351 340 2 358 352 7 344
107 113 121 124 136 142 141 136 134 114 104 116 109 60 74 88 96 82 56 89 113 113 107 92 97 96 72 26 360 1 88 30 9 357 355 360 359 355 351 11 8 4 11
99 134 138 139 144 148 139 144 128 124 133 141 131 146 158 113 115 120 106 111 96 95 102 100 90 93 65 44 20 26 60 44 15 3 352 356 357 3 12 35 14 2 2
154 166 144 170 165 165 141 138 154 152 151 152 149 173 179 150 167 130 113 95 102 92 80 102 98 87 69 53 43 35 36 34 13 2 359 348 2 6 358 34 13 13 14
156 159 160 167 150 144 133 148 152 142 148 148 152 179 180 190 104 124 115 112 109 105 107 112 95 84 86 75 61 52 36 27 8 359 358 353 343 4 14 30 19 12 14
215 165 180 175 154 132 136 144 161 149 156 148 156 157 169 192 153 120 126 118 111 94 80 88 80 74 73 74 65 60 52 15 345 357 352 347 335 355 15 32 29 20 21
306 203 157 158 132 135 140 136 132 133 126 141 146 149 148 130 121 122 118 119 113 109 103 96 90 86 74 66 63 56 44 20 14 2 346 337 335 356 9 37 26 31 33
63 106 98 108 131 138 139 138 134 136 141 144 146 138 134 127 124 124 130 125 121 118 113 109 104 96 85 73 58 46 27 24 13 6 1 344 348 22 6 35 48 44 47
80 86 107 108 105 118 130 127 134 152 149 153 140 138 142 136 129 133 128 126 122 118 123 125 123 114 100 82 62 41 33 25 16 13 21 34 34 23 12 30 52 58 59